Regional Weather Roundup
Issued by NWS Wilmington, NC

Home | Current Version | Previous Version | Text Only | Print | Product List | Glossary On
Versions: 1 2 3 4 5 6 7 8 9 10 11 12 13 14 15 16 17 18 19 20 21 22 23 24 25 26 27 28 29 30 31 32 33 34 35 36 37 38 39 40 41 42 43 44 45 46 47 48 49 50
977
ASUS42 KILM 211014
RWRILM
RWRILM
REGIONAL HOURLY WEATHER ROUNDUP
NATIONAL WEATHER SERVICE WILMINGTON NC
600 AM EDT MON AUG 21 2017

NOTE: "FAIR" INDICATES FEW OR NO CLOUDS BELOW 12,000 FEET WITH NO
SIGNIFICANT WEATHER AND/OR OBSTRUCTIONS TO VISIBILITY.

...............WFO WILMINGTON COUNTY WARNING AREA...............

......COASTAL NC AND SC COUNTIES......

CITY           SKY/WX    TMP DP  RH WIND       PRES   REMARKS
WILMINGTON     MOCLDY    76  75  97 CALM      30.15R
N MYRTLE BEACH MOCLDY    78  77  96 CALM      30.15R
MYRTLE BEACH   NOT AVBL

......INLAND NC AND SC COUNTIES.......

CITY           SKY/WX    TMP DP  RH WIND       PRES   REMARKS
LUMBERTON      CLOUDY    72  72 100 CALM      30.17R FOG
ELIZABETHTOWN  NOT AVBL
WHITEVILLE     PTCLDY    75  74  97 CALM      30.16R FOG
FLORENCE       PTCLDY    75  75 100 CALM      30.17R
DARLINGTON     MOCLDY    74  73  97 CALM      30.18R FOG
KINGSTREE      FAIR      72  70  94 CALM      30.15R FOG
HARTSVILLE     FAIR      72  72 100 NE3       30.17R FOG
BENNETTSVILLE  FAIR      73  73 100 CALM      30.17R FOG
CONWAY         MOCLDY    73  73 100 CALM      30.16R FOG
GEORGETOWN     FAIR      75  73  94 CALM      30.15S
MARION         FAIR      72  72 100 CALM      30.16R FOG

....................REST OF NORTH CAROLINA......................

.........EASTERN NC.........

CITY           SKY/WX    TMP DP  RH WIND       PRES   REMARKS
CAPE HATTERAS  MOCLDY    78  78 100 E3        30.17R
JACKSONVILLE   FOG       72  72 100 CALM      30.17S VSB 1/2
MOREHEAD CITY  MOCLDY    77  77 100 NE5       30.16R
KENANSVILLE    FOG       70  70 100 CALM      30.18R VSB<1/4
NEW BERN       CLOUDY    73  73 100 CALM      30.18S
ELIZABETH CITY CLEAR     77  77 100 E3        30.19R

.........CENTRAL NC.........

CITY           SKY/WX    TMP DP  RH WIND       PRES   REMARKS
RALEIGH DURHAM PTCLDY    73  71  93 CALM      30.20R
ROCKY MOUNT    FOG       69  69 100 CALM      30.19R VSB 1/2
ROANOKE RAPIDS NOT AVBL
FAYETTEVILLE   CLOUDY    75  75 100 N5        30.17R
HOFFMAN        PTCLDY    70  70 100 CALM      30.18R

.........WESTERN NC.........

CITY           SKY/WX    TMP DP  RH WIND       PRES   REMARKS
CHARLOTTE      PTCLDY    76  74  93 CALM      30.20R
GREENSBORO     CLOUDY    76  72  87 N5        30.21R
HICKORY        NOT AVBL
BOONE          NOT AVBL
ASHEVILLE      NOT AVBL

.....................REST OF SOUTH CAROLINA.....................

.........EASTERN SC.........

CITY           SKY/WX    TMP DP  RH WIND       PRES   REMARKS
CHARLESTON     PTCLDY    77  77 100 NE5       30.14R
BEAUFORT MCAS  CLEAR     78  78 100 N5        30.13R FOG
HILTON HEAD    NOT AVBL

.........CENTRAL SC.........

CITY           SKY/WX    TMP DP  RH WIND       PRES   REMARKS
COLUMBIA       PTCLDY    76  72  87 CALM      30.16R
ORANGEBURG     CLEAR     75  73  93 CALM      30.16R
SUMTER SHAW    PTCLDY    74  72  92 CALM      30.14R

.........WESTERN SC.........

CITY           SKY/WX    TMP DP  RH WIND       PRES   REMARKS
GREENVILLE     NOT AVBL
ROCK HILL      CLEAR     72  72 100 N3        30.20R FOG
ANDERSON       MOCLDY    75  72  90 CALM      30.18R
CLEMSON        NOT AVBL
GREENWOOD      CLEAR     73  73 100 CALM      30.18R FOG


...................COASTAL AND OFFSHORE REPORTS..................

................LOCAL PIERS AND NC RESERVE................


STATION/POSITION TIME  SKY/WX   TEMP    WIND        PRES    VSBY
                                AIR SEA DIR/SP/G
                 (UTC)          (F)     (DEG/KT/KT) (MB)    (MI)
JOHNY MRCER PIER 0936            80 84  360/  3/  5 1019.9S
NC RESRV MASNBRO NOT AVBL
OCEAN CREST PIER NOT AVBL
SPRINGMAID  PIER 0936                               1020.2R


................COASTAL AND OFFSHORE BUOYS................


STATION/POSITION TIME  SKY/WX   TEMP    WIND        PRES    VSBY
                                AIR SEA DIR/SP/G
                 (UTC)          (F)     (DEG/KT/KT) (MB)    (MI)
DIMNDSHOAL 41025 0950            82 85   30/  8/ 10 1021.1S
WVE H/P(F/S)=  2/ 8 SWL H/P/D(F/S/D)=  2/120/ 8

CAPE LOOKOUT     1000            81      50/  7/  8 1020.9R
ONSLOW BAY 41036 NOT AVBL
ONSLOW BAY 41064 0908            80 84  290/  2/  2 1020.8F
ONSLOW BAY 41159 0943               84                N/A
WVE H/P(F/S)=  2/ 8

MASNBO INL 41110 0929               83                N/A
WVE H/P(F/S)=  2/ 8

WILM HARBR 41108 0930               85                N/A
WVE H/P(F/S)=  2/ 8

27SE WRITB 41037 0908            83 84   50/  2/  4 1020.7R
FRYING PAN 41013 0950            83 84  190/  4/  6 1020.8R
WVE H/P(F/S)=  2/ 8 SWL H/P/D(F/S/D)=  2/140/ 8

SUNST NRSH 41024 0908            81 85  360/  4/  6 1020.3S
CAPRS NRSH 41029 0908            82 86  210/  2/  4 1019.8S
EDISTO     41004 1000            83 85  350/  2/  4 1020.1


..........OFFSHORE BUOYS BEYOND 100 NM OFFSHORE...........
.....IN A TRIANGLE---HAT TO BERMUDA TO BAHAMAS TO HAT.....


STATION/POSITION TIME  SKY/WX   TEMP    WIND        PRES    VSBY
                                AIR SEA DIR/SP/G
                 (UTC)          (F)     (DEG/KT/KT) (MB)    (MI)
150E HAT   41001 1000               82  240/  6/  8 1021.9
W BERMUDA  41048 1000            82 83  290/  2/  4 1022.6
ATLANTIC S 41049 0950            83 85   60/  8/ 10 1021.9R
WVE H/P(F/S)=  5/ 9 SWL H/P/D(F/S/D)=  5/110/ 9

E BAHAMAS  41046 1000            82 84  120/ 14/ 17 1018.8
NE BAHAMAS 41047 1000            80 84  120/ 17/ 25 1020.2
120E CANVRL41010 1000            83 84  130/  8/ 10 1019.6

END




USA.gov is the U.S. government's official web portal to all federal, state and local government web resources and services.